Weather History for Watertown, NY

Change the Weather History Date:

Friday, June 14, 2013

  Actual Average Record
Temperature  
Mean Temperature 61 °F 63 °F  
Max Temperature 77 °F 74 °F 95 °F (1949)
Min Temperature 45 °F 52 °F 38 °F (1970)
Degree Days  
Heating Degree Days 4 4  
Month to date heating degree days 68 70  
Since 1 June heating degree days 68 70  
Since 1 July heating degree days 6793 7546  
Cooling Degree Days 0 2  
Month to date cooling degree days 13 17  
Year to date cooling degree days 47 28  
Since 1 June cooling degree days 13 17  
Growing Degree Days 10 (Base 50)    
Moisture  
Dew Point 52 °F    
Average Humidity 75    
Maximum Humidity 100    
Minimum Humidity 49    
Precipitation  
Precipitation 0.00 in 0.10 in 0.58 in (2002)
Month to date precipitation 4.36 1.41  
Year to date precipitation 14.98 14.56  
Sea Level Pressure  
Sea Level Pressure 29.81 in    
Wind  
Wind Speed 5 mph (North)    
Max Wind Speed 16 mph    
Max Gust Speed 22 mph    
Visibility 5 miles    
Events Fog    
T = Trace of Precipitation, MM = Missing Value Source: NWS Daily Summary

Daily Weather History Graph

Daily Weather History Graph

Search for Another Location

Airport:

Trip Planner

Search our weather history database for the weather conditions in past years. The results will help you decide how hot, cold, wet, or windy it might be!

Date:

Astronomy

Jun. 14, 2013 Rise Set
Actual Time 5:20 AM EDT 8:48 PM EDT
Civil Twilight 4:44 AM EDT 9:24 PM EDT
Nautical Twilight 3:56 AM EDT 10:12 PM EDT
Astronomical Twilight 2:56 AM EDT 11:12 PM EDT
Moon 11:03 AM EDT (6/14) No Moon Set
Length of Visible Light 16h 40m
Length of Day
15h 27m
Waxing Crescent, 30% of the Moon is Illuminated
Jun 14
Waxing Crescent
Jun 16
First Quarter
Jun 23
Full
Jun 30
Last Quarter
Jul 8
New

Hourly Weather History & Observations

Time (EDT) Temp. Dew Point Humidity Pressure Visibility Wind Dir Wind Speed Gust Speed Precip Events Conditions
12:09 AM 53.6 °F 51.8 °F 94% 29.76 in 1.5 mi Calm Calm - N/A   Partly Cloudy
12:20 AM 51.8 °F 50.0 °F 94% 29.76 in 0.8 mi Calm Calm - N/A   Clear
12:43 AM 50.0 °F 48.2 °F 94% 29.76 in 2.0 mi Calm Calm - N/A   Clear
12:56 AM 50.0 °F 48.0 °F 93% 29.76 in 1.2 mi Calm Calm - N/A   Clear
1:01 AM 50.0 °F 48.2 °F 94% 29.76 in 0.5 mi Calm Calm - N/A Fog Fog
1:11 AM 50.0 °F 48.2 °F 94% 29.76 in 0.2 mi Calm Calm - N/A Fog Fog
1:48 AM 48.2 °F 46.4 °F 93% 29.76 in 0.5 mi Calm Calm - N/A Fog Fog
1:56 AM 48.0 °F 46.9 °F 96% 29.76 in 0.5 mi SE 3.5 mph - N/A Fog Fog
2:25 AM 48.2 °F 46.4 °F 93% 29.75 in 0.5 mi Calm Calm - N/A Fog Fog
2:32 AM 48.2 °F 46.4 °F 93% 29.75 in 0.5 mi Calm Calm - N/A Fog Fog
2:53 AM 46.4 °F 46.4 °F 100% 29.75 in 0.2 mi Calm Calm - N/A Fog Fog
2:56 AM 46.9 °F 46.0 °F 97% 29.75 in 0.2 mi Calm Calm - N/A Fog Fog
3:18 AM 48.2 °F 46.4 °F 93% 29.75 in 0.5 mi SE 3.5 mph - N/A Fog Fog
3:22 AM 50.0 °F 48.2 °F 94% 29.75 in 1.2 mi Calm Calm - N/A   Scattered Clouds
3:29 AM 46.4 °F 46.4 °F 100% 29.75 in 0.8 mi Calm Calm - N/A   Mist
3:34 AM 46.4 °F 44.6 °F 93% 29.75 in 0.2 mi Calm Calm - N/A Fog Fog
3:56 AM 48.0 °F 46.9 °F 96% 29.76 in 0.2 mi ENE 3.5 mph - N/A Fog Fog
4:13 AM 48.2 °F 46.4 °F 93% 29.76 in 0.5 mi Calm Calm - N/A Fog Fog
4:25 AM 46.4 °F 46.4 °F 100% 29.77 in 0.2 mi Calm Calm - N/A Fog Fog
4:56 AM 48.0 °F 46.9 °F 96% 29.78 in 0.2 mi Calm Calm - N/A Fog Fog
5:08 AM 48.2 °F 46.4 °F 93% 29.78 in 0.2 mi SSE 3.5 mph - N/A Fog Fog
5:37 AM 50.0 °F 48.2 °F 94% 29.78 in 0.5 mi Calm Calm - N/A Fog Fog
5:45 AM 50.0 °F 50.0 °F 100% 29.79 in 0.2 mi Calm Calm - N/A Fog Fog
5:56 AM 51.1 °F 50.0 °F 96% 29.79 in 0.2 mi Calm Calm - N/A Fog Fog
6:19 AM 51.8 °F 51.8 °F 100% 29.80 in 0.2 mi Calm Calm - N/A Fog Fog
6:56 AM 52.0 °F 51.1 °F 97% 29.80 in 0.2 mi Calm Calm - N/A Fog Fog
7:05 AM 51.8 °F 51.8 °F 100% 29.80 in 0.8 mi Calm Calm - N/A   Overcast
7:10 AM 51.8 °F 51.8 °F 100% 29.80 in 2.0 mi Calm Calm - N/A   Overcast
7:13 AM 51.8 °F 51.8 °F 100% 29.80 in 3.0 mi Calm Calm - N/A   Overcast
7:56 AM 55.9 °F 55.0 °F 97% 29.81 in 9.0 mi Calm Calm - N/A   Overcast
8:56 AM 62.1 °F 57.0 °F 84% 29.83 in 10.0 mi North 8.1 mph - N/A   Mostly Cloudy
9:12 AM 62.6 °F 57.2 °F 82% 29.84 in 10.0 mi NNE 6.9 mph - N/A   Overcast
9:32 AM 66.2 °F 57.2 °F 73% 29.84 in 10.0 mi North 9.2 mph - N/A   Overcast
9:56 AM 66.0 °F 57.0 °F 73% 29.83 in 10.0 mi North 12.7 mph 18.4 mph N/A   Overcast
10:56 AM 66.9 °F 55.9 °F 68% 29.84 in 10.0 mi North 11.5 mph - 0.01 in   Mostly Cloudy
11:14 AM 69.8 °F 57.2 °F 64% 29.85 in 10.0 mi NNE 10.4 mph - N/A   Scattered Clouds
11:37 AM 69.8 °F 55.4 °F 60% 29.85 in 10.0 mi North 10.4 mph - N/A   Mostly Cloudy
11:56 AM 71.1 °F 57.0 °F 61% 29.84 in 10.0 mi NNE 11.5 mph - N/A   Mostly Cloudy
12:11 PM 69.8 °F 55.4 °F 60% 29.85 in 10.0 mi North 6.9 mph - N/A   Mostly Cloudy
12:56 PM 72.0 °F 57.0 °F 59% 29.85 in 10.0 mi NNW 9.2 mph - N/A   Scattered Clouds
1:56 PM 75.0 °F 55.9 °F 51% 29.85 in 10.0 mi North 11.5 mph 16.1 mph N/A   Partly Cloudy
2:56 PM 73.9 °F 54.0 °F 50% 29.85 in 10.0 mi NNW 10.4 mph 18.4 mph N/A   Partly Cloudy
3:56 PM 71.1 °F 57.9 °F 63% 29.86 in 10.0 mi WSW 13.8 mph 20.7 mph N/A   Mostly Cloudy
4:56 PM 69.1 °F 59.0 °F 70% 29.87 in 10.0 mi WSW 8.1 mph - N/A   Scattered Clouds
5:56 PM 70.0 °F 60.1 °F 71% 29.87 in 10.0 mi WSW 4.6 mph - N/A   Clear
6:56 PM 71.1 °F 59.0 °F 66% 29.87 in 10.0 mi WSW 3.5 mph - N/A   Clear
7:56 PM 64.9 °F 59.0 °F 81% 29.88 in 10.0 mi Calm Calm - N/A   Clear
8:56 PM 59.0 °F 55.9 °F 90% 29.89 in 10.0 mi Calm Calm - N/A   Clear
9:56 PM 54.0 °F 52.0 °F 93% 29.91 in 10.0 mi Calm Calm - N/A   Clear
10:56 PM 52.0 °F 50.0 °F 93% 29.92 in 10.0 mi Calm Calm - N/A   Clear
11:56 PM 48.9 °F 46.9 °F 93% 29.93 in 8.0 mi Calm Calm - N/A   Clear